STARLINK-1333, 45580

Orbit data source: Space-Track

STARLINK-1333, 45580 is a payload satellite owned by SpaceX/Seattle (US) in LEO that was launched on Wed, 22 Apr 2020 UTC via an FALCON 9 launch vehicle from the Air Force Eastern Test Range (AFETR). Payload-class satellites include a variety of spacecraft equipped with specific instruments for various scientific and technological missions. These include communications satellites like Starlink; space stations such as the ISS; scientific satellites like the Hubble; Earth observation satellites from companies like Planet Labs, Umbra, and HawkEye 360; GPS; miniature CubeSats for education and research; and military/defense satellites.

Loading next visibility...
Identifier
45580, 2020-025BB
Orbit
LEO
Country
Flag of USUS
Related business
Manufacturer
SpaceX/Seattle
Mission
Partially operational Commercial Communications
Bus & Motor
STARLINK, Unknown motor
Mass
260 kg wet, ~248 kg dry
Launch date (UTC)
2020-04-22 (6 years ago)
Launch vehicle
FALCON 9
Launch site
Air Force Eastern Test Range (AFETR)
Object type
Payload
Rocket body
Debris
Shape & HBR
Box + 1 Pan, 10.1 m
Radar Cross Section
13.562 m², Large (>1 m²)

Expand to show TLE details & history
Last TLE update: 17 hours ago

TLE from 17 hours ago
0 STARLINK-1333
1 45580U 20025BB  26170.83614449  .00040738  00000-0  11369-2 0  9990
2 45580  53.1574 321.8169 0001061 242.6591 117.4304 15.36362268341163
Epoch: 2026-06-19T20:04Z
TLE epoch observation values (Epoch: 2026-06-19T20:04:02.883Z)
Latitude
-0.00009°
Longitude
112.74542°
Altitude
458.113 km
Speed
7.639 km/s
True Right ascension
21h 27m 16s
True Declination
0° 00' 00"
Sunlit
Object was in full shadow at epoch
Visualization orbit readout
Latitude
Unknown
Longitude
Unknown
Altitude
Unknown
Speed
Unknown
Apparent Right ascension
Unknown
Apparent Declination
Unknown
Sunlit
N/A
Visualization observer readout
Local Sidereal Time
23:45:05
Azimuth
Unknown
Elevation
Unknown
Doppler factor
Unknown
Orbital elements
Apogee altitude
457.86 km
Perigee altitude
456.409 km
Semi-major axis
6,835.272 km
Eccentricity
0.00011
Inclination
53.1574°
RAAN
321.8169°
Arg. of periapsis
242.6591°
True anomaly
117.44119°
Mean anomaly
117.4304°
Eccentric anomaly
117.4358°
Mean motion
3.84069 °/min
Orbital period
93.73 mins
BSTAR
0.0011369
Loading maneuver chart data...
Computing Atmospheric mass density...
Loading historical data...
Loading historical data...
Loading historical data...
Loading historical data...
Loading historical data...
Loading historical data...
Loading historical data...

Documentation

Showing up to 5 results
|